| time (UTC) | temp F | wind direction | speed MPH | gust MPH | rain 1hr in | rain 24hr in | rain mn in | humidity % | barometer mb |
| 20260510020904 | 62 | 9 | 0.0 | 0.0 | 0.00 | 0.00 | 0.00 | 69 | 1012.2 |
| 20260510015904 | 63 | 9 | 0.0 | 0.0 | 0.00 | 0.00 | 0.00 | 68 | 1012.1 |
| 20260510014904 | 64 | 9 | 0.0 | 0.0 | 0.00 | 0.00 | 0.00 | 67 | 1012.0 |
| 20260510014404 | 64 | 9 | 0.0 | 0.0 | 0.00 | 0.00 | 0.00 | 67 | 1011.9 |
| 20260510013904 | 64 | 9 | 0.0 | 0.0 | 0.00 | 0.00 | 0.00 | 66 | 1011.8 |
| 20260510013404 | 65 | 9 | 0.0 | 0.0 | 0.00 | 0.00 | 0.00 | 66 | 1011.9 |
| 20260510012904 | 66 | 9 | 0.0 | 0.0 | 0.00 | 0.00 | 0.00 | 65 | 1011.9 |
| 20260510012404 | 66 | 9 | 0.0 | 0.0 | 0.00 | 0.00 | 0.00 | 64 | 1011.8 |
| 20260510011904 | 66 | 9 | 0.0 | 0.0 | 0.00 | 0.00 | 0.00 | 63 | 1011.7 |
| 20260510010903 | 67 | 9 | 0.0 | 1.0 | 0.00 | 0.00 | 0.00 | 60 | 1011.6 |
| 20260510010404 | 68 | 9 | 0.0 | 0.0 | 0.00 | 0.00 | 0.00 | 59 | 1011.6 |
| 20260510005404 | 69 | 9 | 0.0 | 1.0 | 0.00 | 0.00 | 0.00 | 59 | 1011.4 |
| 20260510004904 | 69 | 9 | 0.0 | 0.0 | 0.00 | 0.00 | 0.00 | 58 | 1011.5 |
| 20260510004404 | 70 | 9 | 0.0 | 0.0 | 0.00 | 0.00 | 0.00 | 57 | 1011.5 |
| 20260510003904 | 71 | 9 | 0.0 | 0.0 | 0.00 | 0.00 | 0.00 | 55 | 1011.3 |
| 20260510003403 | 72 | 9 | 0.0 | 0.0 | 0.00 | 0.00 | 0.00 | 54 | 1011.2 |
| 20260510002903 | 72 | 9 | 0.0 | 0.0 | 0.00 | 0.00 | 0.00 | 51 | 1011.3 |
| 20260510001904 | 73 | 9 | 0.0 | 1.0 | 0.00 | 0.00 | 0.00 | 49 | 1011.2 |
| 20260510001404 | 74 | 9 | 0.0 | 1.0 | 0.00 | 0.00 | 0.00 | 48 | 1011.2 |
| 20260510000904 | 75 | 9 | 0.0 | 1.0 | 0.00 | 0.00 | 0.00 | 44 | 1011.1 |
| 20260510000404 | 76 | 9 | 1.0 | 2.0 | 0.00 | 0.00 | 0.00 | 41 | 1011.0 |
| 20260509235904 | 76 | 350 | 1.0 | 2.0 | 0.00 | 0.00 | 0.00 | 38 | 1010.9 |
| 20260509235403 | 76 | 350 | 1.0 | 2.0 | 0.00 | 0.00 | 0.00 | 39 | 1010.9 |
| 20260509233904 | 77 | 350 | 1.0 | 2.0 | 0.00 | 0.00 | 0.00 | 38 | 1010.8 |
| 20260509233404 | 77 | 350 | 1.0 | 3.0 | 0.00 | 0.00 | 0.00 | 38 | 1010.8 |
| 20260509232904 | 77 | 346 | 3.0 | 3.0 | 0.00 | 0.00 | 0.00 | 39 | 1010.8 |
| 20260509232403 | 77 | 323 | 3.0 | 5.0 | 0.00 | 0.00 | 0.00 | 39 | 1010.9 |
| 20260509231904 | 77 | 359 | 3.0 | 5.0 | 0.00 | 0.00 | 0.00 | 38 | 1011.0 |
| 20260509231404 | 78 | 318 | 3.0 | 3.0 | 0.00 | 0.00 | 0.00 | 40 | 1010.9 |
| 20260509230904 | 78 | 314 | 2.0 | 3.0 | 0.00 | 0.00 | 0.00 | 40 | 1010.8 |
| 20260509230404 | 78 | 293 | 2.0 | 3.0 | 0.00 | 0.00 | 0.00 | 39 | 1010.7 |
| 20260509225903 | 78 | 341 | 3.0 | 5.0 | 0.00 | 0.00 | 0.00 | 39 | 1010.6 |
| 20260509225403 | 79 | 359 | 3.0 | 3.0 | 0.00 | 0.00 | 0.00 | 39 | 1010.8 |
| 20260509224903 | 79 | 348 | 3.0 | 3.0 | 0.00 | 0.00 | 0.00 | 40 | 1010.8 |
| 20260509224404 | 79 | 352 | 3.0 | 5.0 | 0.00 | 0.00 | 0.00 | 39 | 1010.7 |
| 20260509223904 | 79 | 305 | 3.0 | 7.0 | 0.00 | 0.00 | 0.00 | 39 | 1010.6 |
| 20260509223403 | 80 | 310 | 3.0 | 5.0 | 0.00 | 0.00 | 0.00 | 38 | 1010.6 |
| 20260509222904 | 80 | 298 | 2.0 | 5.0 | 0.00 | 0.00 | 0.00 | 39 | 1010.8 |
| 20260509222404 | 80 | 299 | 3.0 | 8.0 | 0.00 | 0.00 | 0.00 | 39 | 1010.8 |
| 20260509221904 | 80 | 6 | 1.0 | 3.0 | 0.00 | 0.00 | 0.00 | 40 | 1010.7 |
| 20260509221404 | 80 | 5 | 2.0 | 3.0 | 0.00 | 0.00 | 0.00 | 39 | 1010.6 |
| 20260509220904 | 80 | 321 | 3.0 | 8.0 | 0.00 | 0.00 | 0.00 | 39 | 1010.8 |
| 20260509220403 | 80 | 298 | 3.0 | 8.0 | 0.00 | 0.00 | 0.00 | 38 | 1010.8 |
| 20260509215903 | 80 | 337 | 3.0 | 7.0 | 0.00 | 0.00 | 0.00 | 41 | 1010.6 |
| 20260509215404 | 79 | 268 | 3.0 | 7.0 | 0.00 | 0.00 | 0.00 | 39 | 1010.7 |
| 20260509214904 | 80 | 295 | 2.0 | 8.0 | 0.00 | 0.00 | 0.00 | 40 | 1010.8 |
| 20260509214403 | 80 | 293 | 5.0 | 8.0 | 0.00 | 0.00 | 0.00 | 40 | 1010.8 |
| 20260509213904 | 80 | 292 | 2.0 | 5.0 | 0.00 | 0.00 | 0.00 | 41 | 1010.7 |
| 20260509213404 | 80 | 300 | 3.0 | 6.0 | 0.00 | 0.00 | 0.00 | 41 | 1010.8 |
| 20260509212904 | 80 | 305 | 3.0 | 5.0 | 0.00 | 0.00 | 0.00 | 41 | 1010.9 |
| 20260509212404 | 80 | 253 | 1.0 | 3.0 | 0.00 | 0.00 | 0.00 | 41 | 1010.8 |
| 20260509211904 | 80 | 285 | 3.0 | 6.0 | 0.00 | 0.00 | 0.00 | 42 | 1010.8 |
| 20260509211404 | 80 | 88 | 0.0 | 2.0 | 0.00 | 0.00 | 0.00 | 43 | 1010.8 |
| 20260509210403 | 80 | 87 | 3.0 | 6.0 | 0.00 | 0.00 | 0.00 | 43 | 1010.6 |
| 20260509205905 | 79 | 96 | 2.0 | 3.0 | 0.00 | 0.00 | 0.00 | 43 | 1010.8 |
| 20260509205404 | 79 | 101 | 2.0 | 3.0 | 0.00 | 0.00 | 0.00 | 43 | 1011.0 |
| 20260509204904 | 79 | 165 | 4.0 | 7.0 | 0.00 | 0.00 | 0.00 | 42 | 1010.9 |
| 20260509204404 | 79 | 192 | 3.0 | 6.0 | 0.00 | 0.00 | 0.00 | 43 | 1010.6 |
| 20260509203903 | 80 | 189 | 2.0 | 5.0 | 0.00 | 0.00 | 0.00 | 43 | 1010.7 |
| 20260509203404 | 79 | 91 | 2.0 | 6.0 | 0.00 | 0.00 | 0.00 | 42 | 1010.8 |
| 20260509202904 | 79 | 91 | 2.0 | 6.0 | 0.00 | 0.00 | 0.00 | 44 | 1010.8 |
| 20260509202403 | 79 | 103 | 3.0 | 8.0 | 0.00 | 0.00 | 0.00 | 44 | 1010.8 |
| 20260509201903 | 79 | 79 | 4.0 | 8.0 | 0.00 | 0.00 | 0.00 | 45 | 1010.8 |
| 20260509200905 | 79 | 312 | 5.0 | 8.0 | 0.00 | 0.00 | 0.00 | 45 | 1011.0 |
| 20260509200404 | 79 | 344 | 3.0 | 8.0 | 0.00 | 0.00 | 0.00 | 45 | 1010.9 |
| 20260509195905 | 79 | 287 | 3.0 | 8.0 | 0.00 | 0.00 | 0.00 | 43 | 1010.9 |
| 20260509194905 | 79 | 286 | 3.0 | 8.0 | 0.00 | 0.00 | 0.00 | 45 | 1010.9 |
| 20260509193904 | 78 | 63 | 2.0 | 3.0 | 0.00 | 0.00 | 0.00 | 46 | 1011.0 |
| 20260509193404 | 79 | 296 | 2.0 | 6.0 | 0.00 | 0.00 | 0.00 | 48 | 1011.1 |
| 20260509192904 | 78 | 355 | 2.0 | 8.0 | 0.00 | 0.00 | 0.00 | 47 | 1011.1 |
| 20260509192405 | 78 | 348 | 2.0 | 8.0 | 0.00 | 0.00 | 0.00 | 47 | 1011.1 |
| 20260509191404 | 78 | 115 | 5.0 | 7.0 | 0.00 | 0.00 | 0.00 | 47 | 1011.2 |
| 20260509190905 | 78 | 63 | 3.0 | 8.0 | 0.00 | 0.00 | 0.00 | 47 | 1011.2 |
| 20260509190405 | 78 | 2 | 5.0 | 9.0 | 0.00 | 0.00 | 0.00 | 45 | 1011.2 |
| 20260509185905 | 78 | 346 | 3.0 | 8.0 | 0.00 | 0.00 | 0.00 | 46 | 1011.2 |
| 20260509185405 | 77 | 356 | 2.0 | 3.0 | 0.00 | 0.00 | 0.00 | 52 | 1011.3 |
| 20260509184905 | 77 | 0 | 2.0 | 3.0 | 0.00 | 0.00 | 0.00 | 48 | 1011.4 |
| 20260509183904 | 77 | 296 | 5.0 | 9.0 | 0.00 | 0.00 | 0.00 | 48 | 1011.5 |
| 20260509183405 | 76 | 48 | 2.0 | 3.0 | 0.00 | 0.00 | 0.00 | 51 | 1011.5 |
| 20260509182905 | 77 | 322 | 5.0 | 9.0 | 0.00 | 0.00 | 0.00 | 49 | 1011.5 |
| 20260509182404 | 77 | 345 | 3.0 | 8.0 | 0.00 | 0.00 | 0.00 | 49 | 1011.5 |
| 20260509181905 | 76 | 218 | 3.0 | 9.0 | 0.00 | 0.00 | 0.00 | 51 | 1011.5 |
| 20260509181405 | 77 | 292 | 4.0 | 9.0 | 0.00 | 0.00 | 0.00 | 52 | 1011.5 |
| 20260509180905 | 77 | 271 | 4.0 | 7.0 | 0.00 | 0.00 | 0.00 | 54 | 1011.5 |
| 20260509180405 | 76 | 186 | 4.0 | 7.0 | 0.00 | 0.00 | 0.00 | 54 | 1011.5 |
| 20260509175905 | 76 | 203 | 3.0 | 8.0 | 0.00 | 0.00 | 0.00 | 57 | 1011.4 |
| 20260509175405 | 76 | 298 | 3.0 | 12.0 | 0.00 | 0.00 | 0.00 | 54 | 1011.4 |
| 20260509174905 | 76 | 207 | 3.0 | 8.0 | 0.00 | 0.00 | 0.00 | 56 | 1011.4 |
| 20260509173905 | 75 | 193 | 2.0 | 3.0 | 0.00 | 0.00 | 0.00 | 57 | 1011.3 |
| 20260509173405 | 75 | 324 | 1.0 | 3.0 | 0.00 | 0.00 | 0.00 | 55 | 1011.4 |
| 20260509172905 | 75 | 285 | 3.0 | 8.0 | 0.00 | 0.00 | 0.00 | 56 | 1011.5 |
| 20260509172405 | 76 | 313 | 5.0 | 9.0 | 0.00 | 0.00 | 0.00 | 56 | 1011.5 |
| 20260509171904 | 75 | 315 | 5.0 | 8.0 | 0.00 | 0.00 | 0.00 | 58 | 1011.5 |
| 20260509171404 | 75 | 306 | 4.0 | 9.0 | 0.00 | 0.00 | 0.00 | 58 | 1011.7 |
| 20260509170905 | 75 | 250 | 5.0 | 9.0 | 0.00 | 0.00 | 0.00 | 59 | 1011.5 |
| 20260509170405 | 74 | 297 | 0.0 | 5.0 | 0.00 | 0.00 | 0.00 | 58 | 1011.6 |
| 20260509165905 | 74 | 25 | 2.0 | 3.0 | 0.00 | 0.00 | 0.00 | 60 | 1011.6 |
| 20260509164905 | 75 | 291 | 3.0 | 7.0 | 0.00 | 0.00 | 0.00 | 62 | 1011.5 |
| 20260509163904 | 73 | 301 | 3.0 | 7.0 | 0.00 | 0.00 | 0.00 | 60 | 1011.5 |
| 20260509162905 | 72 | 354 | 2.0 | 7.0 | 0.00 | 0.00 | 0.00 | 61 | 1011.4 |
| 20260509162404 | 73 | 13 | 1.0 | 5.0 | 0.00 | 0.00 | 0.00 | 60 | 1011.3 |
| 20260509161406 | 72 | 352 | 2.0 | 5.0 | 0.00 | 0.00 | 0.00 | 64 | 1011.2 |
| 20260509160904 | 73 | 19 | 3.0 | 7.0 | 0.00 | 0.00 | 0.00 | 64 | 1011.2 |
| 20260509160404 | 72 | 286 | 2.0 | 8.0 | 0.00 | 0.00 | 0.00 | 63 | 1011.2 |
| 20260509155404 | 72 | 287 | 6.0 | 8.0 | 0.00 | 0.00 | 0.00 | 63 | 1011.1 |
| 20260509154405 | 71 | 334 | 3.0 | 8.0 | 0.00 | 0.00 | 0.00 | 64 | 1011.2 |
| 20260509153905 | 71 | 296 | 4.0 | 9.0 | 0.00 | 0.00 | 0.00 | 65 | 1011.2 |
| 20260509153405 | 71 | 342 | 5.0 | 9.0 | 0.00 | 0.00 | 0.00 | 66 | 1011.1 |
| 20260509152904 | 70 | 358 | 3.0 | 9.0 | 0.00 | 0.00 | 0.00 | 67 | 1011.2 |
| 20260509152404 | 71 | 275 | 4.0 | 7.0 | 0.00 | 0.00 | 0.00 | 68 | 1011.1 |
| 20260509151905 | 70 | 310 | 3.0 | 7.0 | 0.00 | 0.00 | 0.00 | 69 | 1011.1 |
| 20260509151404 | 70 | 289 | 4.0 | 8.0 | 0.00 | 0.00 | 0.00 | 69 | 1011.2 |
| 20260509150904 | 70 | 347 | 3.0 | 7.0 | 0.00 | 0.00 | 0.00 | 70 | 1011.2 |
| 20260509150405 | 69 | 300 | 5.0 | 9.0 | 0.00 | 0.00 | 0.00 | 70 | 1011.2 |
| 20260509145405 | 69 | 304 | 2.0 | 9.0 | 0.00 | 0.00 | 0.00 | 72 | 1011.2 |
| 20260509144905 | 69 | 270 | 3.0 | 10.0 | 0.00 | 0.00 | 0.00 | 72 | 1011.2 |
| 20260509144405 | 68 | 290 | 5.0 | 8.0 | 0.00 | 0.00 | 0.00 | 73 | 1011.2 |
| 20260509143905 | 68 | 292 | 6.0 | 10.0 | 0.00 | 0.00 | 0.00 | 73 | 1011.2 |
| 20260509142904 | 67 | 292 | 3.0 | 8.0 | 0.00 | 0.00 | 0.00 | 74 | 1011.2 |
| 20260509142405 | 67 | 282 | 5.0 | 9.0 | 0.00 | 0.00 | 0.00 | 74 | 1011.2 |
| 20260509140905 | 66 | 280 | 3.0 | 10.0 | 0.00 | 0.00 | 0.00 | 76 | 1011.0 |
| 20260509140405 | 66 | 296 | 5.0 | 8.0 | 0.00 | 0.00 | 0.00 | 77 | 1011.0 |
| 20260509135905 | 65 | 297 | 5.0 | 8.0 | 0.00 | 0.00 | 0.00 | 77 | 1010.9 |
| 20260509135405 | 65 | 334 | 6.0 | 12.0 | 0.00 | 0.00 | 0.00 | 76 | 1010.9 |
| 20260509134905 | 65 | 295 | 4.0 | 9.0 | 0.00 | 0.00 | 0.00 | 77 | 1010.9 |
| 20260509134404 | 65 | 282 | 6.0 | 10.0 | 0.00 | 0.00 | 0.00 | 78 | 1010.8 |
| 20260509133405 | 64 | 287 | 6.0 | 10.0 | 0.00 | 0.00 | 0.00 | 79 | 1010.7 |
| 20260509132905 | 64 | 292 | 3.0 | 8.0 | 0.00 | 0.00 | 0.00 | 80 | 1010.7 |
| 20260509132405 | 63 | 282 | 3.0 | 7.0 | 0.00 | 0.00 | 0.00 | 80 | 1010.8 |
| 20260509131404 | 63 | 291 | 3.0 | 7.0 | 0.00 | 0.00 | 0.00 | 80 | 1010.8 |
| 20260509130904 | 62 | 293 | 4.0 | 10.0 | 0.00 | 0.00 | 0.00 | 81 | 1010.9 |
| 20260509130405 | 62 | 299 | 3.0 | 8.0 | 0.00 | 0.00 | 0.00 | 82 | 1010.9 |
| 20260509125905 | 62 | 305 | 2.0 | 5.0 | 0.00 | 0.00 | 0.00 | 82 | 1010.8 |
| 20260509124905 | 61 | 245 | 1.0 | 6.0 | 0.00 | 0.00 | 0.00 | 83 | 1010.6 |
| 20260509124405 | 60 | 250 | 2.0 | 3.0 | 0.00 | 0.00 | 0.00 | 84 | 1010.6 |
| 20260509123905 | 60 | 240 | 2.0 | 5.0 | 0.00 | 0.00 | 0.00 | 84 | 1010.6 |
| 20260509123405 | 60 | 239 | 1.0 | 3.0 | 0.00 | 0.00 | 0.00 | 84 | 1010.7 |
| 20260509122405 | 59 | 295 | 2.0 | 6.0 | 0.00 | 0.00 | 0.00 | 85 | 1010.8 |
| 20260509121905 | 59 | 231 | 1.0 | 3.0 | 0.00 | 0.00 | 0.00 | 85 | 1010.8 |
| 20260509121404 | 58 | 272 | 2.0 | 3.0 | 0.00 | 0.00 | 0.00 | 86 | 1010.8 |
| 20260509120905 | 58 | 229 | 0.0 | 2.0 | 0.00 | 0.00 | 0.00 | 86 | 1010.8 |
| 20260509120405 | 57 | 229 | 1.0 | 3.0 | 0.00 | 0.00 | 0.00 | 87 | 1010.7 |
| 20260509115905 | 57 | 239 | 1.0 | 3.0 | 0.00 | 0.00 | 0.00 | 87 | 1010.7 |
| 20260509115405 | 57 | 220 | 2.0 | 3.0 | 0.00 | 0.00 | 0.00 | 87 | 1010.7 |
| 20260509114904 | 56 | 192 | 1.0 | 3.0 | 0.00 | 0.00 | 0.00 | 87 | 1010.4 |
| 20260509114404 | 56 | 169 | 0.0 | 3.0 | 0.00 | 0.00 | 0.00 | 88 | 1010.4 |
| 20260509113904 | 56 | 247 | 1.0 | 2.0 | 0.00 | 0.00 | 0.00 | 87 | 1010.2 |
| 20260509113404 | 56 | 217 | 1.0 | 2.0 | 0.00 | 0.00 | 0.00 | 87 | 1010.1 |
| 20260509112904 | 56 | 217 | 1.0 | 2.0 | 0.00 | 0.00 | 0.00 | 87 | 1010.0 |
| 20260509112405 | 56 | 217 | 1.0 | 3.0 | 0.00 | 0.00 | 0.00 | 87 | 1009.9 |
| 20260509111405 | 56 | 217 | 2.0 | 5.0 | 0.00 | 0.00 | 0.00 | 87 | 1009.8 |
| 20260509110905 | 56 | 227 | 3.0 | 10.0 | 0.00 | 0.00 | 0.00 | 87 | 1009.8 |
| 20260509110404 | 56 | 238 | 2.0 | 7.0 | 0.00 | 0.00 | 0.00 | 86 | 1009.8 |
| 20260509105905 | 56 | 214 | 4.0 | 7.0 | 0.00 | 0.00 | 0.00 | 86 | 1009.7 |
| 20260509105404 | 56 | 220 | 5.0 | 7.0 | 0.00 | 0.00 | 0.00 | 86 | 1009.6 |
| 20260509104905 | 56 | 211 | 3.0 | 7.0 | 0.00 | 0.00 | 0.00 | 86 | 1009.4 |
| 20260509104405 | 56 | 229 | 2.0 | 9.0 | 0.00 | 0.00 | 0.00 | 86 | 1009.4 |
| 20260509103405 | 56 | 225 | 2.0 | 6.0 | 0.00 | 0.00 | 0.00 | 86 | 1009.2 |
| 20260509102905 | 56 | 206 | 4.0 | 9.0 | 0.00 | 0.00 | 0.00 | 86 | 1009.2 |
| 20260509102405 | 56 | 181 | 3.0 | 6.0 | 0.00 | 0.00 | 0.00 | 85 | 1009.1 |
| 20260509101404 | 57 | 208 | 4.0 | 9.0 | 0.00 | 0.00 | 0.00 | 85 | 1009.2 |
| 20260509100904 | 57 | 222 | 3.0 | 12.0 | 0.00 | 0.00 | 0.00 | 85 | 1009.3 |
| 20260509100405 | 57 | 228 | 3.0 | 7.0 | 0.00 | 0.00 | 0.00 | 85 | 1009.4 |
| 20260509095905 | 57 | 209 | 5.0 | 7.0 | 0.00 | 0.00 | 0.00 | 85 | 1009.3 |
| 20260509095405 | 57 | 219 | 5.0 | 9.0 | 0.00 | 0.00 | 0.00 | 85 | 1009.2 |
| 20260509094905 | 57 | 207 | 5.0 | 10.0 | 0.00 | 0.00 | 0.00 | 85 | 1009.2 |
| 20260509094405 | 57 | 196 | 4.0 | 12.0 | 0.00 | 0.00 | 0.00 | 85 | 1009.3 |
| 20260509093904 | 57 | 198 | 5.0 | 8.0 | 0.00 | 0.00 | 0.00 | 85 | 1009.3 |
| 20260509093404 | 57 | 222 | 4.0 | 8.0 | 0.00 | 0.00 | 0.00 | 84 | 1009.5 |
| 20260509092905 | 57 | 218 | 5.0 | 7.0 | 0.00 | 0.00 | 0.00 | 84 | 1009.4 |
| 20260509091905 | 57 | 205 | 5.0 | 9.0 | 0.00 | 0.00 | 0.00 | 84 | 1009.4 |
| 20260509091404 | 57 | 199 | 5.0 | 9.0 | 0.00 | 0.00 | 0.00 | 84 | 1009.5 |
| 20260509090905 | 57 | 193 | 5.0 | 9.0 | 0.00 | 0.00 | 0.00 | 84 | 1009.5 |
| 20260509090404 | 56 | 194 | 2.0 | 6.0 | 0.00 | 0.00 | 0.00 | 84 | 1009.5 |
| 20260509085405 | 56 | 201 | 3.0 | 7.0 | 0.00 | 0.00 | 0.00 | 84 | 1009.8 |
| 20260509084405 | 56 | 198 | 3.0 | 6.0 | 0.00 | 0.00 | 0.00 | 84 | 1009.9 |
| 20260509083905 | 56 | 196 | 2.0 | 3.0 | 0.00 | 0.00 | 0.00 | 84 | 1009.8 |
| 20260509083405 | 56 | 197 | 3.0 | 6.0 | 0.00 | 0.00 | 0.00 | 84 | 1009.7 |
| 20260509082905 | 56 | 201 | 3.0 | 6.0 | 0.00 | 0.00 | 0.00 | 83 | 1009.7 |
| 20260509081904 | 57 | 210 | 1.0 | 5.0 | 0.00 | 0.00 | 0.00 | 83 | 1009.7 |
| 20260509080404 | 57 | 192 | 3.0 | 6.0 | 0.00 | 0.00 | 0.00 | 82 | 1009.8 |
| 20260509075905 | 57 | 191 | 2.0 | 6.0 | 0.00 | 0.00 | 0.00 | 82 | 1009.6 |
| 20260509075405 | 57 | 197 | 3.0 | 6.0 | 0.00 | 0.00 | 0.00 | 82 | 1009.7 |
| 20260509074404 | 57 | 201 | 3.0 | 6.0 | 0.00 | 0.00 | 0.00 | 82 | 1009.8 |
| 20260509073404 | 57 | 197 | 4.0 | 7.0 | 0.00 | 0.00 | 0.00 | 81 | 1009.6 |
| 20260509072904 | 57 | 212 | 4.0 | 7.0 | 0.00 | 0.00 | 0.00 | 81 | 1009.6 |
| 20260509072404 | 57 | 206 | 5.0 | 8.0 | 0.00 | 0.00 | 0.00 | 81 | 1009.6 |
| 20260509071904 | 57 | 194 | 4.0 | 7.0 | 0.00 | 0.00 | 0.00 | 80 | 1009.7 |
| 20260509071405 | 57 | 195 | 4.0 | 8.0 | 0.00 | 0.00 | 0.00 | 80 | 1009.9 |
| 20260509070905 | 58 | 196 | 5.0 | 7.0 | 0.00 | 0.00 | 0.00 | 80 | 1010.0 |
| 20260509070404 | 58 | 208 | 3.0 | 7.0 | 0.00 | 0.00 | 0.00 | 80 | 1010.2 |
| 20260509065904 | 58 | 214 | 3.0 | 7.0 | 0.00 | 0.00 | 0.00 | 79 | 1010.4 |
| 20260509065404 | 58 | 208 | 3.0 | 5.0 | 0.00 | 0.00 | 0.00 | 79 | 1010.3 |
| 20260509064405 | 58 | 208 | 5.0 | 9.0 | 0.00 | 0.00 | 0.00 | 79 | 1010.2 |
| 20260509063905 | 58 | 188 | 7.0 | 12.0 | 0.00 | 0.00 | 0.00 | 79 | 1010.0 |
| 20260509063405 | 58 | 191 | 5.0 | 8.0 | 0.00 | 0.00 | 0.00 | 78 | 1010.1 |
| 20260509062404 | 58 | 212 | 4.0 | 7.0 | 0.00 | 0.00 | 0.00 | 78 | 1010.6 |
| 20260509061904 | 58 | 214 | 4.0 | 8.0 | 0.00 | 0.00 | 0.00 | 78 | 1010.6 |
| 20260509061404 | 58 | 203 | 5.0 | 9.0 | 0.00 | 0.00 | 0.00 | 78 | 1010.6 |
| 20260509060905 | 58 | 190 | 6.0 | 10.0 | 0.00 | 0.00 | 0.00 | 78 | 1010.5 |
| 20260509060405 | 58 | 218 | 7.0 | 12.0 | 0.00 | 0.00 | 0.00 | 78 | 1010.6 |
| 20260509055904 | 58 | 196 | 6.0 | 9.0 | 0.00 | 0.00 | 0.00 | 78 | 1010.6 |
| 20260509055404 | 58 | 172 | 3.0 | 8.0 | 0.00 | 0.00 | 0.00 | 78 | 1010.8 |
| 20260509054905 | 58 | 206 | 4.0 | 12.0 | 0.00 | 0.00 | 0.00 | 77 | 1010.9 |
| 20260509054405 | 58 | 220 | 5.0 | 8.0 | 0.00 | 0.00 | 0.00 | 77 | 1010.9 |
| 20260509053904 | 59 | 214 | 5.0 | 8.0 | 0.00 | 0.00 | 0.00 | 77 | 1010.9 |
| 20260509053404 | 59 | 214 | 3.0 | 7.0 | 0.00 | 0.00 | 0.00 | 77 | 1011.0 |
| 20260509052904 | 59 | 189 | 3.0 | 7.0 | 0.00 | 0.00 | 0.00 | 77 | 1010.9 |
| 20260509052405 | 59 | 214 | 5.0 | 9.0 | 0.00 | 0.00 | 0.00 | 76 | 1011.0 |
| 20260509051905 | 59 | 206 | 5.0 | 7.0 | 0.00 | 0.00 | 0.00 | 76 | 1011.1 |
| 20260509051404 | 59 | 214 | 3.0 | 6.0 | 0.00 | 0.00 | 0.00 | 76 | 1011.1 |
| 20260509050905 | 59 | 223 | 2.0 | 5.0 | 0.00 | 0.00 | 0.00 | 75 | 1011.2 |
| 20260509050405 | 59 | 232 | 3.0 | 7.0 | 0.00 | 0.00 | 0.00 | 75 | 1011.0 |
| 20260509045904 | 59 | 213 | 3.0 | 6.0 | 0.00 | 0.00 | 0.00 | 75 | 1011.2 |
| 20260509045404 | 59 | 213 | 5.0 | 7.0 | 0.00 | 0.00 | 0.00 | 75 | 1011.1 |
| 20260509044905 | 59 | 230 | 3.0 | 8.0 | 0.00 | 0.00 | 0.00 | 75 | 1011.1 |
| 20260509044404 | 59 | 217 | 4.0 | 8.0 | 0.00 | 0.00 | 0.00 | 75 | 1011.3 |
| 20260509043904 | 59 | 215 | 5.0 | 9.0 | 0.00 | 0.00 | 0.00 | 75 | 1011.2 |
| 20260509042905 | 60 | 210 | 5.0 | 9.0 | 0.00 | 0.00 | 0.00 | 74 | 1011.2 |
| 20260509042404 | 60 | 203 | 4.0 | 7.0 | 0.00 | 0.00 | 0.00 | 73 | 1011.0 |
| 20260509040905 | 60 | 214 | 3.0 | 7.0 | 0.00 | 0.00 | 0.00 | 72 | 1011.2 |
| 20260509040404 | 61 | 206 | 6.0 | 12.0 | 0.00 | 0.00 | 0.00 | 71 | 1011.0 |
| 20260509035904 | 61 | 200 | 5.0 | 12.0 | 0.00 | 0.00 | 0.00 | 71 | 1010.8 |
| 20260509035404 | 61 | 198 | 6.0 | 12.0 | 0.00 | 0.00 | 0.00 | 70 | 1011.0 |
| 20260509034904 | 61 | 205 | 6.0 | 10.0 | 0.00 | 0.00 | 0.00 | 70 | 1011.2 |
| 20260509034405 | 61 | 196 | 5.0 | 9.0 | 0.00 | 0.00 | 0.00 | 69 | 1011.2 |
| 20260509033905 | 61 | 198 | 6.0 | 12.0 | 0.00 | 0.00 | 0.00 | 69 | 1011.2 |
| 20260509033404 | 61 | 199 | 5.0 | 10.0 | 0.00 | 0.00 | 0.00 | 69 | 1011.2 |
| 20260509032904 | 61 | 206 | 4.0 | 8.0 | 0.00 | 0.00 | 0.00 | 68 | 1011.2 |
| 20260509032404 | 62 | 196 | 7.0 | 10.0 | 0.00 | 0.00 | 0.00 | 68 | 1011.0 |
| 20260509031905 | 62 | 197 | 5.0 | 8.0 | 0.00 | 0.00 | 0.00 | 68 | 1011.0 |
| 20260509031404 | 62 | 194 | 5.0 | 6.0 | 0.00 | 0.00 | 0.00 | 67 | 1011.2 |
| 20260509030904 | 62 | 186 | 4.0 | 8.0 | 0.00 | 0.00 | 0.00 | 67 | 1011.2 |
| 20260509030404 | 63 | 212 | 4.0 | 9.0 | 0.00 | 0.00 | 0.00 | 66 | 1011.2 |
| 20260509025904 | 63 | 201 | 5.0 | 9.0 | 0.00 | 0.00 | 0.00 | 66 | 1011.2 |
| 20260509025404 | 63 | 204 | 5.0 | 10.0 | 0.00 | 0.00 | 0.00 | 65 | 1011.4 |
| 20260509024904 | 63 | 209 | 5.0 | 8.0 | 0.00 | 0.00 | 0.00 | 65 | 1011.4 |
| 20260509024404 | 63 | 212 | 5.0 | 8.0 | 0.00 | 0.00 | 0.00 | 64 | 1011.5 |
| 20260509023905 | 64 | 189 | 4.0 | 12.0 | 0.00 | 0.00 | 0.00 | 64 | 1011.3 |
| 20260509023405 | 64 | 206 | 4.0 | 9.0 | 0.00 | 0.00 | 0.00 | 63 | 1011.2 |
| 20260509022904 | 64 | 201 | 4.0 | 8.0 | 0.00 | 0.00 | 0.00 | 63 | 1011.2 |
| 20260509022405 | 64 | 194 | 5.0 | 9.0 | 0.00 | 0.00 | 0.00 | 62 | 1011.1 |
| 20260509021405 | 65 | 195 | 5.0 | 9.0 | 0.00 | 0.00 | 0.00 | 61 | 1011.1 |